This is the latest recevied weather packets stored in our database for station/object N1JOV-7. If no packets are shown the sender has not sent any weather packets the latest 10 day(s).
| Time | Temp. | Humidity | Pressure | Rain* | Wind** | Luminosity | Snow |
|---|---|---|---|---|---|---|---|
| 1777504862 | 6.67° C | 95% | 1016 hPa | 0 mm | - | - | - |
| 1777504262 | 6.67° C | 95% | 1015.9 hPa | 0 mm | - | - | - |
| 1777503662 | 6.67° C | 94% | 1015.8 hPa | 0 mm | - | - | - |
| 1777503062 | 7.22° C | 93% | 1015.8 hPa | 0 mm | - | - | - |
| 1777502462 | 7.22° C | 92% | 1016 hPa | 0 mm | - | - | - |
| 1777501862 | 7.22° C | 91% | 1016 hPa | 0 mm | - | - | - |
| 1777501261 | 7.78° C | 90% | 1016 hPa | 0 mm | - | - | - |
| 1777500661 | 7.78° C | 89% | 1016 hPa | 0 mm | - | - | - |
| 1777500061 | 7.78° C | 88% | 1016.2 hPa | 0 mm | - | - | - |
| 1777499462 | 8.33° C | 87% | 1015.9 hPa | 0 mm | - | - | - |
| 1777498862 | 8.33° C | 86% | 1015.9 hPa | 0 mm | - | - | - |
| 1777498262 | 8.89° C | 85% | 1015.9 hPa | 0 mm | - | - | - |
| 1777497662 | 8.89° C | 84% | 1015.9 hPa | 0 mm | - | - | - |
| 1777497062 | 8.89° C | 84% | 1015.9 hPa | 0 mm | - | - | - |
| 1777496462 | 9.44° C | 84% | 1016.2 hPa | 0 mm | - | - | - |
| 1777495861 | 9.44° C | 85% | 1016.2 hPa | 0 mm | - | - | - |
| 1777495261 | 10° C | 83% | 1016.2 hPa | 0 mm | - | - | - |
| 1777494661 | 9.44° C | 84% | 1016.3 hPa | 0 mm | - | - | - |
| 1777494061 | 10° C | 85% | 1016.4 hPa | 0 mm | - | - | - |
| 1777493462 | 10° C | 82% | 1016.6 hPa | 0 mm | - | - | - |
| 1777492862 | 10.56° C | 80% | 1016.6 hPa | 0 mm | - | - | - |
| 1777492262 | 10° C | 83% | 1016.4 hPa | 0 mm | - | - | - |
| 1777491662 | 10° C | 82% | 1016.7 hPa | 0 mm | - | - | - |
| 1777491062 | 10.56° C | 81% | 1016.8 hPa | 0 mm | - | - | - |
| 1777490461 | 10.56° C | 81% | 1016.9 hPa | 0 mm | - | - | - |
* Rain latest hour (hover to see other rain measurements)
** Current wind speed in m/s (hover to see current wind gust speed)